Showing default

FLOCK 4G 26, 62633

Orbit data source: Space-Track

FLOCK 4G 26, 62633 is a payload satellite owned by Planet (US) in SSO that was launched on Tue, 14 Jan 2025 UTC via an FALCON 9 launch vehicle from the Air Force Western Test Range (AFWTR). Payload-class satellites include a variety of spacecraft equipped with specific instruments for various scientific and technological missions. These include communications satellites like Starlink; space stations such as the ISS; scientific satellites like the Hubble; Earth observation satellites from companies like Planet Labs, Umbra, and HawkEye 360; GPS; miniature CubeSats for education and research; and military/defense satellites.

Loading next visibility...
Identifier
62633, 2025-009AA
Orbit
SSO
Last TLE update
21 hours ago
Origin
Manufacturer
Planet
Mission
Operational Commercial Imaging
Bus & Motor
CUBESAT 3U, Unknown motor
Mass
5.7 kg wet, 5.7 kg dry
Launch date (UTC)
2025-01-14 (6 months ago)
Launch vehicle
FALCON 9
Launch site
Air Force Western Test Range (AFWTR)
Object type
Payload
Rocket body
Debris
Shape & HBR
Box + 2 Pan, 0.3 m
Radar Cross Section
0.035 m², Medium (>0.1 m² and < 1m²)

Expand to show TLE details & history

TLE from 21 hours ago
0 FLOCK 4G 26
1 62633U 25009AA  25187.19023385  .00006271  00000-0  28502-3 0  9996
2 62633  97.4329 267.2992 0005290  87.4708 272.7133 15.21092237 26176
Epoch: 2025-07-06T04:33Z
TLE epoch observation values (Epoch: 2025-07-06T04:33:56.204Z)
Latitude
-0.00005°
Longitude
-85.60246°
Altitude
505.465 km
Speed
7.612 km/s
True Right ascension
17h 49m 11s
True Declination
0° 00' 00"
Sunlit
Object was in full shadow at epoch
Visualization orbit readout
Latitude
32.85813°
Longitude
-89.55961°
Altitude
504.614 km
Speed
7.616 km/s
Apparent Right ascension
20h 54m 06s
Apparent Declination
-3° 32' 13"
Sunlit
Object is in full shadow
Visualization observer readout
Local Sidereal Time
13:14:40
Azimuth
76.234° E
Elevation
-21.184°
Doppler factor
1
Orbital elements
Apogee altitude
503.149 km
Perigee altitude
495.872 km
Semi-major axis
6,877.647 km
Eccentricity
0.00053
Inclination
97.4329°
RAAN
267.2992°
Arg. of periapsis
87.4708°
True anomaly
Unknown
Mean anomaly
272.7133°
Eccentric anomaly
Unknown
Mean motion
3.80525 °/min
Orbital period
94.61 mins
BSTAR
0.00028502
Loading maneuver chart data...
Loading SW <> Apogee altitude chart data...
Loading historical data...
Loading historical data...
Loading historical data...
Loading historical data...
Loading historical data...
Loading historical data...
Loading historical data...

FLOCK 4G 26 Visibility forecast

Observer location: undefined°, undefined°

Span
Click to sort rows by Start time (UTC) header in descending order
Start Az.
Max El. time (UTC)
Max El. Az.
Max El.
End time (UTC)
End Az.
5 mins2025-07-07 05:58:05.363Z214.542° SW2025-07-07 06:00:05.363Z269.795° W27.432°2025-07-07 06:03:05.363Z326.51° NNW
4 mins2025-07-07 17:28:05.363Z59.398° ENE2025-07-07 17:30:05.363Z103.186° ESE19.604°2025-07-07 17:32:05.363Z140.428° SSE
4 mins2025-07-07 19:02:05.363Z321.477° NNW2025-07-07 19:03:05.363Z299.471° NW20.4°2025-07-07 19:06:05.363Z240.558° WSW
|